PBD156 URKK-UUWW

Flight info

Callsign PBD156
Flight time 3h 26m
Altitude 35000
Route N0450F350 DV B549 AG B549 IRGID A944 GUBOR G487 ERSAR DCT BEMES DCT VULFI DCT TUVGI DCT EVZUN DCT ZIZAR DCT VAZLU DCT UZZID DCT NOKLI N72 WGD G481 OBABI T619 UMRAL P163 LADIM/K0821F340 P163 GOLRI L736 OLOPI
Aircraft B738/M-VGDW/C

Departure

Time 2026-04-28 09:28
Airport Krasnodar Pashkovsky International Airport (URKK)

Arrival

Time 2026-04-28 12:54
Airport Vnukovo International Airport (UUWW)
Time Latitude Longitude Altitude Speed Heading
2026-04-28 08:57 45.03502 39.14233 117 ft 0 kts 333°
2026-04-28 09:13 45.03499 39.14236 117 ft 4 kts 344°
2026-04-28 09:14 45.03492 39.14241 129 ft 4 kts 333°
2026-04-28 09:14 45.03469 39.14250 108 ft 4 kts 15°
2026-04-28 09:14 45.03450 39.14230 112 ft 4 kts 58°
2026-04-28 09:14 45.03441 39.14208 113 ft 0 kts 59°
2026-04-28 09:17 45.03441 39.14210 112 ft 1 kts 59°
2026-04-28 09:18 45.03448 39.14226 112 ft 4 kts 59°
2026-04-28 09:18 45.03473 39.14287 114 ft 8 kts 63°
2026-04-28 09:18 45.03501 39.14360 115 ft 8 kts 60°
2026-04-28 09:18 45.03529 39.14430 115 ft 8 kts 62°
2026-04-28 09:19 45.03555 39.14498 116 ft 8 kts 61°
2026-04-28 09:19 45.03580 39.14564 114 ft 8 kts 61°
2026-04-28 09:19 45.03605 39.14627 114 ft 7 kts 61°
2026-04-28 09:19 45.03630 39.14688 115 ft 7 kts 58°
2026-04-28 09:20 45.03656 39.14755 116 ft 9 kts 61°
2026-04-28 09:20 45.03688 39.14836 117 ft 9 kts 62°
2026-04-28 09:20 45.03719 39.14916 117 ft 9 kts 61°
2026-04-28 09:20 45.03751 39.14993 116 ft 9 kts 61°
2026-04-28 09:21 45.03780 39.15068 117 ft 9 kts 61°
2026-04-28 09:21 45.03809 39.15142 118 ft 8 kts 61°
2026-04-28 09:21 45.03836 39.15214 115 ft 8 kts 69°
2026-04-28 09:21 45.03827 39.15292 117 ft 8 kts 110°
2026-04-28 09:22 45.03805 39.15363 116 ft 8 kts 113°
2026-04-28 09:22 45.03784 39.15433 119 ft 8 kts 111°
2026-04-28 09:22 45.03765 39.15502 115 ft 8 kts 112°
2026-04-28 09:22 45.03738 39.15609 116 ft 13 kts 103°
2026-04-28 09:23 45.03736 39.15729 118 ft 12 kts 90°
2026-04-28 09:23 45.03735 39.15849 119 ft 12 kts 90°
2026-04-28 09:23 45.03737 39.15965 119 ft 12 kts 88°
2026-04-28 09:23 45.03739 39.16078 119 ft 11 kts 93°
2026-04-28 09:24 45.03687 39.16157 119 ft 11 kts 143°
2026-04-28 09:24 45.03615 39.16235 118 ft 18 kts 142°
2026-04-28 09:24 45.03501 39.16358 120 ft 21 kts 143°
2026-04-28 09:24 45.03386 39.16479 120 ft 20 kts 143°
2026-04-28 09:25 45.03274 39.16598 119 ft 20 kts 143°
2026-04-28 09:25 45.03167 39.16716 120 ft 19 kts 142°
2026-04-28 09:25 45.03063 39.16829 118 ft 19 kts 142°
2026-04-28 09:25 45.02963 39.16939 118 ft 18 kts 142°
2026-04-28 09:26 45.02867 39.17045 120 ft 17 kts 142°
2026-04-28 09:26 45.02772 39.17145 118 ft 17 kts 144°
2026-04-28 09:26 45.02688 39.17235 120 ft 14 kts 143°
2026-04-28 09:26 45.02638 39.17304 115 ft 9 kts 116°
2026-04-28 09:27 45.02749 39.17570 120 ft 55 kts 52°
2026-04-28 09:27 45.03127 39.18263 119 ft 121 kts 52°
2026-04-28 09:27 45.03750 39.19415 199 ft 167 kts 54°
2026-04-28 09:28 45.04475 39.20749 909 ft 169 kts 53°
2026-04-28 09:28 45.05219 39.22104 1693 ft 175 kts 52°
2026-04-28 09:28 45.05975 39.23534 2287 ft 195 kts 53°
2026-04-28 09:28 45.06836 39.25129 2620 ft 215 kts 52°
2026-04-28 09:29 45.07764 39.26830 3185 ft 222 kts 52°
2026-04-28 09:29 45.08714 39.28573 3898 ft 225 kts 54°
2026-04-28 09:29 45.09311 39.30606 4658 ft 228 kts 87°
2026-04-28 09:29 45.08989 39.32787 5375 ft 231 kts 122°
2026-04-28 09:30 45.07911 39.34413 6090 ft 231 kts 144°
2026-04-28 09:30 45.06597 39.35817 6819 ft 235 kts 146°
2026-04-28 09:30 45.05266 39.37215 7455 ft 241 kts 146°
2026-04-28 09:30 45.03908 39.38653 8118 ft 246 kts 146°
2026-04-28 09:31 45.02410 39.39784 8726 ft 245 kts 172°
2026-04-28 09:31 45.00739 39.39709 9336 ft 243 kts 203°
2026-04-28 09:31 44.99325 39.38448 9885 ft 242 kts 229°
2026-04-28 09:31 44.98234 39.36628 10554 ft 243 kts 236°
2026-04-28 09:32 44.97225 39.34717 11281 ft 242 kts 237°
2026-04-28 09:32 44.96224 39.32800 11992 ft 243 kts 236°
2026-04-28 09:32 44.95211 39.30879 12700 ft 244 kts 236°
2026-04-28 09:32 44.94187 39.28958 13411 ft 245 kts 236°
2026-04-28 09:33 44.93152 39.27036 14116 ft 247 kts 236°
2026-04-28 09:33 44.92121 39.25129 14733 ft 248 kts 236°
2026-04-28 09:33 44.91070 39.23191 15356 ft 250 kts 236°
2026-04-28 09:33 44.90016 39.21231 15972 ft 252 kts 239°
2026-04-28 09:34 44.89348 39.18887 16149 ft 269 kts 261°
2026-04-28 09:34 44.89412 39.16172 16330 ft 290 kts 281°
2026-04-28 09:34 44.89601 39.13316 16734 ft 296 kts 261°
2026-04-28 09:34 44.89244 39.10458 17402 ft 297 kts 259°
2026-04-28 09:35 44.88907 39.07577 18085 ft 299 kts 261°
2026-04-28 09:35 44.88610 39.04665 18701 ft 302 kts 261°
2026-04-28 09:35 44.88329 39.01722 19305 ft 303 kts 261°
2026-04-28 09:35 44.88052 38.98776 19903 ft 303 kts 260°
2026-04-28 09:36 44.87444 38.95933 20454 ft 306 kts 245°
2026-04-28 09:36 44.86233 38.93377 20607 ft 324 kts 231°
2026-04-28 09:36 44.84686 38.91016 20733 ft 340 kts 229°
2026-04-28 09:36 44.82999 38.88517 20845 ft 355 kts 229°
2026-04-28 09:37 44.81273 38.85929 20944 ft 369 kts 230°
2026-04-28 09:37 44.79527 38.83291 21238 ft 376 kts 229°
2026-04-28 09:37 44.77423 38.80982 21741 ft 384 kts 213°
2026-04-28 09:37 44.74974 38.79539 22290 ft 393 kts 199°
2026-04-28 09:38 44.72265 38.78822 22780 ft 399 kts 194°
2026-04-28 09:38 44.69503 38.78263 23210 ft 403 kts 194°
2026-04-28 09:38 44.66713 38.77736 23638 ft 406 kts 194°
2026-04-28 09:38 44.63914 38.77202 24045 ft 408 kts 194°
2026-04-28 09:39 44.61097 38.76646 24417 ft 409 kts 194°
2026-04-28 09:39 44.58271 38.76071 24780 ft 411 kts 194°
2026-04-28 09:39 44.55432 38.75482 25125 ft 413 kts 194°
2026-04-28 09:39 44.52582 38.74885 25472 ft 415 kts 194°
2026-04-28 09:40 44.49715 38.74284 25804 ft 417 kts 194°
2026-04-28 09:40 44.46842 38.73682 26148 ft 419 kts 194°
2026-04-28 09:40 44.43942 38.73075 26464 ft 421 kts 194°
2026-04-28 09:40 44.41036 38.72468 26785 ft 423 kts 194°
2026-04-28 09:41 44.38113 38.71859 27122 ft 424 kts 194°
2026-04-28 09:41 44.35145 38.71552 27381 ft 437 kts 181°
2026-04-28 09:41 44.32132 38.72496 27647 ft 453 kts 164°
2026-04-28 09:41 44.30236 38.73779 27879 ft 462 kts 155°
2026-04-28 09:42 44.27129 38.77504 28223 ft 481 kts 134°
2026-04-28 09:42 44.25134 38.81204 28528 ft 484 kts 131°
2026-04-28 09:42 44.23178 38.85048 28782 ft 487 kts 130°
2026-04-28 09:42 44.21214 38.88907 29049 ft 489 kts 130°
2026-04-28 09:43 44.19223 38.92740 29478 ft 486 kts 131°
2026-04-28 09:43 44.17220 38.96518 29938 ft 484 kts 131°
2026-04-28 09:43 44.15209 39.00270 30323 ft 482 kts 132°
2026-04-28 09:43 44.13122 39.03899 30618 ft 478 kts 139°
2026-04-28 09:44 44.10785 39.07163 30936 ft 474 kts 141°
2026-04-28 09:44 44.08410 39.10333 31272 ft 472 kts 142°
2026-04-28 09:44 44.06031 39.13488 31598 ft 471 kts 142°
2026-04-28 09:44 44.03669 39.16646 31900 ft 471 kts 141°
2026-04-28 09:45 44.02112 39.18743 32099 ft 470 kts 141°
2026-04-28 09:45 43.99770 39.21918 32410 ft 470 kts 141°
2026-04-28 09:45 43.97437 39.25088 32747 ft 468 kts 141°
2026-04-28 09:45 43.95107 39.28247 33065 ft 468 kts 141°
2026-04-28 09:46 43.92995 39.31372 33341 ft 473 kts 134°
2026-04-28 09:46 43.91078 39.35267 33642 ft 479 kts 124°
2026-04-28 09:46 43.89620 39.39432 33928 ft 484 kts 115°
2026-04-28 09:46 43.88601 39.43905 34205 ft 486 kts 110°
2026-04-28 09:47 43.87679 39.48418 34409 ft 487 kts 110°
2026-04-28 09:47 43.86731 39.52926 34588 ft 487 kts 111°
2026-04-28 09:47 43.85750 39.57404 34793 ft 486 kts 111°
2026-04-28 09:47 43.84763 39.61818 34984 ft 486 kts 111°
2026-04-28 09:48 43.83755 39.66288 35139 ft 486 kts 111°
2026-04-28 09:48 43.82749 39.70755 35153 ft 486 kts 111°
2026-04-28 09:48 43.80724 39.79764 35162 ft 487 kts 111°
2026-04-28 09:49 43.78934 39.88741 35131 ft 490 kts 101°
2026-04-28 09:49 43.78827 39.98173 35156 ft 495 kts 83°
2026-04-28 09:50 43.80056 40.07566 35145 ft 496 kts 81°
2026-04-28 09:50 43.81347 40.16962 35147 ft 498 kts 81°
2026-04-28 09:51 43.82573 40.26403 35134 ft 499 kts 82°
2026-04-28 09:51 43.83763 40.35894 35126 ft 500 kts 82°
2026-04-28 09:52 43.84946 40.45402 35128 ft 501 kts 82°
2026-04-28 09:52 43.86125 40.54912 35121 ft 501 kts 82°
2026-04-28 09:53 43.87299 40.64445 35107 ft 502 kts 82°
2026-04-28 09:53 43.88865 40.73860 35116 ft 502 kts 69°
2026-04-28 09:54 43.91616 40.82689 35117 ft 503 kts 66°
2026-04-28 09:54 43.94470 40.91538 35121 ft 502 kts 66°
2026-04-28 09:55 43.97262 41.00429 35122 ft 502 kts 67°
2026-04-28 09:55 44.00015 41.09352 35134 ft 503 kts 67°
2026-04-28 09:56 44.02764 41.18306 35133 ft 504 kts 67°
2026-04-28 09:56 44.05509 41.27262 35139 ft 503 kts 67°
2026-04-28 09:57 44.08244 41.36211 35149 ft 503 kts 67°
2026-04-28 09:57 44.10810 41.45259 35134 ft 502 kts 76°
2026-04-28 09:58 44.11767 41.54815 35135 ft 497 kts 94°
2026-04-28 09:58 44.11481 41.64397 35144 ft 495 kts 96°
2026-04-28 09:59 44.11146 41.73979 35139 ft 496 kts 96°
2026-04-28 09:59 44.10848 41.83575 35139 ft 497 kts 96°
2026-04-28 10:00 44.10572 41.93175 35148 ft 497 kts 95°
2026-04-28 10:00 44.10296 42.02785 35153 ft 497 kts 96°
2026-04-28 10:01 44.10010 42.12419 35150 ft 498 kts 96°
2026-04-28 10:01 44.09714 42.22046 35153 ft 498 kts 96°
2026-04-28 10:02 44.09412 42.31601 35159 ft 498 kts 96°
2026-04-28 10:02 44.09097 42.41285 35155 ft 497 kts 96°
2026-04-28 10:03 44.08776 42.50902 35164 ft 497 kts 96°
2026-04-28 10:03 44.08458 42.60198 35184 ft 496 kts 96°
2026-04-28 10:04 44.08123 42.69786 35183 ft 496 kts 96°
2026-04-28 10:04 44.07779 42.79366 35196 ft 496 kts 96°
2026-04-28 10:05 44.07428 42.88946 35197 ft 495 kts 96°
2026-04-28 10:05 44.07069 42.98504 35208 ft 495 kts 96°
2026-04-28 10:06 44.06702 43.08068 35205 ft 495 kts 96°
2026-04-28 10:06 44.06328 43.17617 35207 ft 494 kts 96°
2026-04-28 10:07 44.05947 43.27144 35209 ft 494 kts 96°
2026-04-28 10:07 44.05557 43.36675 35199 ft 493 kts 96°
2026-04-28 10:08 44.05159 43.46200 35185 ft 493 kts 97°
2026-04-28 10:08 44.04755 43.55720 35184 ft 493 kts 97°
2026-04-28 10:09 44.04342 43.65221 35175 ft 492 kts 97°
2026-04-28 10:09 44.03925 43.74654 35185 ft 492 kts 97°
2026-04-28 10:10 44.03495 43.84207 35181 ft 492 kts 97°
2026-04-28 10:10 44.03034 43.93611 35182 ft 491 kts 97°
2026-04-28 10:11 44.02602 44.03093 35182 ft 491 kts 97°
2026-04-28 10:11 44.02167 44.12553 35180 ft 491 kts 97°
2026-04-28 10:12 44.01714 44.22008 35183 ft 490 kts 97°
2026-04-28 10:12 44.01249 44.31465 35188 ft 490 kts 97°
2026-04-28 10:13 44.00776 44.40904 35191 ft 490 kts 97°
2026-04-28 10:13 44.00295 44.50349 35189 ft 490 kts 97°
2026-04-28 10:14 43.99808 44.59781 35195 ft 489 kts 97°
2026-04-28 10:14 43.99312 44.69207 35196 ft 489 kts 97°
2026-04-28 10:15 43.98810 44.78628 35201 ft 489 kts 97°
2026-04-28 10:15 43.98300 44.88027 35203 ft 488 kts 97°
2026-04-28 10:16 43.97784 44.97416 35206 ft 487 kts 97°
2026-04-28 10:16 43.97260 45.06794 35213 ft 487 kts 98°
2026-04-28 10:17 43.96729 45.16161 35217 ft 486 kts 98°
2026-04-28 10:17 43.96195 45.25447 35219 ft 485 kts 98°
2026-04-28 10:18 43.95651 45.34786 35222 ft 485 kts 98°
2026-04-28 10:18 43.95096 45.44165 35223 ft 484 kts 98°
2026-04-28 10:19 43.94537 45.53486 35228 ft 484 kts 98°
2026-04-28 10:19 43.93972 45.62785 35231 ft 484 kts 98°
2026-04-28 10:20 43.93399 45.72075 35229 ft 484 kts 98°
2026-04-28 10:20 43.92820 45.81379 35231 ft 483 kts 98°
2026-04-28 10:21 43.92344 45.90620 35223 ft 486 kts 91°
2026-04-28 10:21 43.92928 45.99974 35224 ft 488 kts 86°
2026-04-28 10:22 43.93687 46.09326 35231 ft 488 kts 86°
2026-04-28 10:22 43.94409 46.18691 35229 ft 488 kts 86°
2026-04-28 10:23 43.95086 46.28060 35231 ft 488 kts 86°
2026-04-28 10:23 43.95741 46.37433 35231 ft 488 kts 86°
2026-04-28 10:24 43.96389 46.46816 35231 ft 488 kts 86°
2026-04-28 10:24 43.97032 46.56220 35229 ft 489 kts 86°
2026-04-28 10:25 43.97667 46.65606 35233 ft 489 kts 86°
2026-04-28 10:25 43.98292 46.74947 35236 ft 489 kts 86°
2026-04-28 10:26 43.98912 46.84338 35230 ft 489 kts 86°
2026-04-28 10:26 43.99525 46.93736 35231 ft 488 kts 87°
2026-04-28 10:27 44.00130 47.03136 35236 ft 488 kts 87°
2026-04-28 10:27 44.00627 47.10947 35235 ft 488 kts 87°
2026-04-28 10:28 44.01316 47.21928 35237 ft 488 kts 87°
2026-04-28 10:29 44.02088 47.34436 35237 ft 488 kts 87°
2026-04-28 10:29 44.02659 47.43831 35238 ft 488 kts 87°
2026-04-28 10:30 44.03222 47.53224 35237 ft 487 kts 87°
2026-04-28 10:30 44.03777 47.62617 35241 ft 487 kts 87°
2026-04-28 10:31 44.04324 47.72006 35242 ft 487 kts 87°
2026-04-28 10:31 44.04863 47.81388 35249 ft 487 kts 87°
2026-04-28 10:32 44.05391 47.90714 35241 ft 487 kts 87°
2026-04-28 10:32 44.05915 48.00097 35240 ft 487 kts 88°
2026-04-28 10:33 44.06430 48.09480 35242 ft 487 kts 88°
2026-04-28 10:33 44.06939 48.18875 35236 ft 487 kts 88°
2026-04-28 10:34 44.07441 48.28265 35244 ft 487 kts 88°
2026-04-28 10:34 44.07935 48.37645 35237 ft 487 kts 88°
2026-04-28 10:35 44.08429 48.47034 35243 ft 487 kts 88°
2026-04-28 10:35 44.08917 48.56423 35240 ft 486 kts 88°
2026-04-28 10:36 44.09396 48.65813 35238 ft 486 kts 88°
2026-04-28 10:36 44.09867 48.75200 35233 ft 486 kts 88°
2026-04-28 10:37 44.10332 48.84589 35233 ft 486 kts 88°
2026-04-28 10:37 44.11193 48.93902 35212 ft 489 kts 70°
2026-04-28 10:37 44.12747 48.98084 35239 ft 487 kts 53°
2026-04-28 10:38 44.15013 49.01467 35230 ft 484 kts 36°
2026-04-28 10:38 44.17856 49.03910 35240 ft 478 kts 20°
2026-04-28 10:38 44.21062 49.05210 35235 ft 471 kts
2026-04-28 10:38 44.24305 49.05373 35237 ft 464 kts 350°
2026-04-28 10:39 44.27431 49.04457 35235 ft 455 kts 335°
2026-04-28 10:39 44.33285 49.01119 35237 ft 455 kts 332°
2026-04-28 10:40 44.39105 48.97586 35233 ft 458 kts 332°
2026-04-28 10:40 44.44934 48.94107 35234 ft 460 kts 333°
2026-04-28 10:41 44.50847 48.90635 35231 ft 461 kts 333°
2026-04-28 10:41 44.56783 48.87165 35228 ft 462 kts 333°
2026-04-28 10:42 44.62713 48.83692 35231 ft 462 kts 333°
2026-04-28 10:42 44.68633 48.80216 35232 ft 461 kts 333°
2026-04-28 10:43 44.74547 48.76733 35230 ft 460 kts 333°
2026-04-28 10:43 44.80434 48.73257 35231 ft 458 kts 333°
2026-04-28 10:44 44.86309 48.69781 35228 ft 457 kts 333°
2026-04-28 10:44 44.92171 48.66305 35230 ft 456 kts 333°
2026-04-28 10:45 44.98015 48.62832 35231 ft 455 kts 333°
2026-04-28 10:45 45.03848 48.59357 35228 ft 455 kts 333°
2026-04-28 10:46 45.09679 48.55876 35227 ft 454 kts 332°
2026-04-28 10:46 45.15503 48.52391 35229 ft 454 kts 332°
2026-04-28 10:47 45.21294 48.48919 35230 ft 455 kts 332°
2026-04-28 10:47 45.27130 48.45412 35223 ft 455 kts 332°
2026-04-28 10:48 45.32971 48.41894 35221 ft 456 kts 332°
2026-04-28 10:48 45.38814 48.38367 35219 ft 457 kts 332°
2026-04-28 10:49 45.44660 48.34830 35218 ft 457 kts 332°
2026-04-28 10:49 45.50483 48.31299 35219 ft 458 kts 332°
2026-04-28 10:50 45.56339 48.27740 35220 ft 458 kts 332°
2026-04-28 10:50 45.62248 48.24141 35215 ft 458 kts 332°
2026-04-28 10:51 45.68078 48.20581 35216 ft 458 kts 332°
2026-04-28 10:51 45.73943 48.16993 35217 ft 458 kts 332°
2026-04-28 10:52 45.79804 48.13398 35214 ft 458 kts 331°
2026-04-28 10:52 45.85666 48.09794 35213 ft 458 kts 331°
2026-04-28 10:53 45.91566 48.06158 35236 ft 459 kts 331°
2026-04-28 10:53 45.94502 48.04344 35386 ft 460 kts 331°
2026-04-28 10:53 45.97402 48.02554 35671 ft 458 kts 331°
2026-04-28 10:53 46.00333 48.00742 35963 ft 456 kts 331°
2026-04-28 10:54 46.03237 47.98944 36212 ft 454 kts 330°
2026-04-28 10:54 46.08493 47.94166 36249 ft 443 kts 311°
2026-04-28 10:55 46.12259 47.87383 36247 ft 429 kts 297°
2026-04-28 10:55 46.15451 47.80116 36235 ft 428 kts 297°
2026-04-28 10:56 46.18665 47.72877 36234 ft 428 kts 297°
2026-04-28 10:56 46.21899 47.65680 36231 ft 427 kts 297°
2026-04-28 10:57 46.25134 47.58476 36229 ft 427 kts 297°
2026-04-28 10:57 46.28358 47.51277 36225 ft 426 kts 297°
2026-04-28 10:58 46.31577 47.44070 36226 ft 426 kts 297°
2026-04-28 10:58 46.34769 47.36905 36227 ft 426 kts 296°
2026-04-28 10:59 46.37979 47.29681 36226 ft 427 kts 296°
2026-04-28 10:59 46.41185 47.22445 36224 ft 427 kts 296°
2026-04-28 11:00 46.44391 47.15194 36226 ft 427 kts 296°
2026-04-28 11:00 46.47595 47.07926 36226 ft 427 kts 296°
2026-04-28 11:01 46.50792 47.00656 36226 ft 427 kts 296°
2026-04-28 11:01 46.53979 46.93389 36232 ft 426 kts 296°
2026-04-28 11:02 46.57157 46.86122 36224 ft 426 kts 295°
2026-04-28 11:02 46.60325 46.78861 36224 ft 425 kts 295°
2026-04-28 11:03 46.63462 46.71651 36220 ft 424 kts 295°
2026-04-28 11:03 46.66609 46.64402 36226 ft 423 kts 295°
2026-04-28 11:04 46.69747 46.57152 36224 ft 423 kts 295°
2026-04-28 11:04 46.72876 46.49904 36219 ft 422 kts 295°
2026-04-28 11:05 46.75993 46.42663 36221 ft 421 kts 295°
2026-04-28 11:05 46.79103 46.35422 36216 ft 421 kts 295°
2026-04-28 11:06 46.82229 46.28122 36224 ft 421 kts 294°
2026-04-28 11:06 46.85305 46.20920 36212 ft 420 kts 294°
2026-04-28 11:07 46.88395 46.13669 36212 ft 420 kts 294°
2026-04-28 11:07 46.91759 46.06625 36212 ft 432 kts 306°
2026-04-28 11:08 46.96562 46.01012 36201 ft 452 kts 323°
2026-04-28 11:08 47.01289 45.97620 36207 ft 457 kts 326°
2026-04-28 11:09 47.08002 45.93087 36218 ft 457 kts 326°
2026-04-28 11:09 47.13756 45.89126 36216 ft 456 kts 327°
2026-04-28 11:10 47.18570 45.85755 36210 ft 457 kts 327°
2026-04-28 11:10 47.24276 45.81734 36206 ft 458 kts 327°
2026-04-28 11:11 47.30023 45.77672 36203 ft 459 kts 327°
2026-04-28 11:11 47.35787 45.73591 36199 ft 460 kts 327°
2026-04-28 11:12 47.41554 45.69499 36194 ft 460 kts 327°
2026-04-28 11:12 47.47332 45.65388 36192 ft 461 kts 327°
2026-04-28 11:13 47.53110 45.61269 36187 ft 461 kts 327°
2026-04-28 11:13 47.58883 45.57142 36184 ft 461 kts 327°
2026-04-28 11:14 47.64652 45.53007 36182 ft 460 kts 327°
2026-04-28 11:14 47.70417 45.48865 36180 ft 460 kts 327°
2026-04-28 11:15 47.76169 45.44723 36173 ft 459 kts 327°
2026-04-28 11:15 47.81575 45.39917 36167 ft 445 kts 312°
2026-04-28 11:16 47.86084 45.33772 36173 ft 441 kts 310°
2026-04-28 11:16 47.90584 45.27538 36165 ft 442 kts 310°
2026-04-28 11:17 47.95122 45.21349 36159 ft 442 kts 311°
2026-04-28 11:17 47.99667 45.15169 36169 ft 442 kts 311°
2026-04-28 11:18 48.04375 45.09226 36154 ft 448 kts 318°
2026-04-28 11:18 48.09580 45.04031 36163 ft 450 kts 320°
2026-04-28 11:19 48.14793 44.98940 36161 ft 450 kts 320°
2026-04-28 11:19 48.20006 44.93754 36158 ft 450 kts 319°
2026-04-28 11:20 48.25212 44.88510 36153 ft 450 kts 319°
2026-04-28 11:20 48.30405 44.83255 36154 ft 450 kts 319°
2026-04-28 11:21 48.35598 44.77991 36148 ft 450 kts 319°
2026-04-28 11:21 48.40783 44.72724 36150 ft 449 kts 319°
2026-04-28 11:22 48.45928 44.67483 36141 ft 449 kts 319°
2026-04-28 11:22 48.51103 44.62201 36139 ft 448 kts 319°
2026-04-28 11:23 48.56262 44.56919 36130 ft 448 kts 319°
2026-04-28 11:23 48.61415 44.51629 36133 ft 447 kts 319°
2026-04-28 11:24 48.66554 44.46338 36132 ft 447 kts 319°
2026-04-28 11:24 48.71686 44.41041 36135 ft 446 kts 319°
2026-04-28 11:25 48.76820 44.35749 36134 ft 447 kts 320°
2026-04-28 11:25 48.82524 44.31677 36144 ft 459 kts 332°
2026-04-28 11:26 48.88542 44.28376 36137 ft 460 kts 333°
2026-04-28 11:26 48.94559 44.25067 36125 ft 459 kts 333°
2026-04-28 11:27 49.00552 44.21691 36124 ft 459 kts 332°
2026-04-28 11:27 49.06537 44.18279 36123 ft 459 kts 332°
2026-04-28 11:28 49.12525 44.14852 36118 ft 459 kts 332°
2026-04-28 11:28 49.18509 44.11422 36111 ft 460 kts 332°
2026-04-28 11:29 49.24510 44.07975 36106 ft 460 kts 332°
2026-04-28 11:29 49.30467 44.04545 36101 ft 460 kts 332°
2026-04-28 11:30 49.36459 44.01085 36095 ft 460 kts 332°
2026-04-28 11:30 49.45444 43.95880 36096 ft 460 kts 332°
2026-04-28 11:31 49.51426 43.92385 36088 ft 459 kts 330°
2026-04-28 11:31 49.57063 43.88022 36088 ft 451 kts 324°
2026-04-28 11:32 49.62537 43.83294 36079 ft 451 kts 323°
2026-04-28 11:32 49.68019 43.78579 36081 ft 451 kts 324°
2026-04-28 11:33 49.73517 43.73915 36083 ft 451 kts 324°
2026-04-28 11:33 49.79018 43.69270 36073 ft 450 kts 324°
2026-04-28 11:34 49.84524 43.64613 36078 ft 450 kts 324°
2026-04-28 11:34 49.90021 43.59949 36076 ft 450 kts 324°
2026-04-28 11:35 49.95512 43.55277 36066 ft 450 kts 324°
2026-04-28 11:35 50.01002 43.50593 36069 ft 450 kts 324°
2026-04-28 11:36 50.06490 43.45898 36070 ft 450 kts 324°
2026-04-28 11:36 50.11973 43.41195 36063 ft 450 kts 324°
2026-04-28 11:37 50.17413 43.36517 36064 ft 450 kts 324°
2026-04-28 11:37 50.22898 43.31788 36052 ft 450 kts 324°
2026-04-28 11:38 50.28358 43.27068 36058 ft 450 kts 324°
2026-04-28 11:38 50.33833 43.22322 36055 ft 450 kts 324°
2026-04-28 11:39 50.39239 43.17623 36051 ft 450 kts 324°
2026-04-28 11:39 50.44712 43.12853 36048 ft 450 kts 324°
2026-04-28 11:40 50.50179 43.08076 36041 ft 450 kts 324°
2026-04-28 11:40 50.55649 43.03284 36040 ft 450 kts 324°
2026-04-28 11:41 50.61113 42.98483 36036 ft 449 kts 324°
2026-04-28 11:41 50.66533 42.93710 36029 ft 449 kts 323°
2026-04-28 11:42 50.72185 42.89383 36035 ft 457 kts 333°
2026-04-28 11:42 50.78198 42.86063 36030 ft 458 kts 334°
2026-04-28 11:43 50.84229 42.82809 36030 ft 458 kts 334°
2026-04-28 11:43 50.90243 42.79497 36025 ft 458 kts 333°
2026-04-28 11:44 50.96286 42.76118 36021 ft 457 kts 333°
2026-04-28 11:44 51.02279 42.72745 36020 ft 457 kts 333°
2026-04-28 11:45 51.08272 42.69363 36020 ft 457 kts 333°
2026-04-28 11:45 51.14215 42.66002 36007 ft 456 kts 333°
2026-04-28 11:46 51.20194 42.62613 36009 ft 456 kts 333°
2026-04-28 11:46 51.26175 42.59213 35997 ft 456 kts 333°
2026-04-28 11:47 51.32144 42.55810 36000 ft 455 kts 333°
2026-04-28 11:47 51.38109 42.52401 35997 ft 455 kts 333°
2026-04-28 11:48 51.44071 42.48982 35991 ft 455 kts 333°
2026-04-28 11:48 51.50029 42.45558 35985 ft 455 kts 333°
2026-04-28 11:49 51.55989 42.42123 35978 ft 455 kts 333°
2026-04-28 11:49 51.61942 42.38681 35975 ft 455 kts 333°
2026-04-28 11:50 51.67900 42.35226 35964 ft 455 kts 333°
2026-04-28 11:50 51.73858 42.31763 35964 ft 455 kts 333°
2026-04-28 11:51 51.79821 42.28287 35959 ft 456 kts 333°
2026-04-28 11:51 51.85788 42.24799 35958 ft 456 kts 333°
2026-04-28 11:52 51.91758 42.21299 35953 ft 457 kts 333°
2026-04-28 11:52 51.96725 42.18379 35948 ft 457 kts 333°
2026-04-28 11:53 52.02708 42.14853 35946 ft 458 kts 333°
2026-04-28 11:53 52.08704 42.11310 35943 ft 459 kts 333°
2026-04-28 11:54 52.14737 42.07881 35940 ft 461 kts 335°
2026-04-28 11:54 52.20825 42.04581 35933 ft 461 kts 335°
2026-04-28 11:55 52.26914 42.01237 35929 ft 461 kts 335°
2026-04-28 11:55 52.32995 41.97858 35923 ft 462 kts 335°
2026-04-28 11:56 52.39315 41.95533 35921 ft 474 kts 351°
2026-04-28 11:56 52.45979 41.95761 35915 ft 480 kts 357°
2026-04-28 11:57 52.52661 41.96297 35906 ft 480 kts 356°
2026-04-28 11:57 52.59334 41.96693 35899 ft 480 kts 356°
2026-04-28 11:58 52.66007 41.97013 35891 ft 478 kts 353°
2026-04-28 11:58 52.69257 41.96342 35892 ft 466 kts 339°
2026-04-28 11:58 52.72282 41.94599 35892 ft 457 kts 329°
2026-04-28 11:59 52.74983 41.91983 35881 ft 447 kts 316°
2026-04-28 11:59 52.77385 41.88770 35898 ft 444 kts 315°
2026-04-28 11:59 52.82135 41.82213 35882 ft 445 kts 315°
2026-04-28 12:00 52.86909 41.75677 35873 ft 446 kts 315°
2026-04-28 12:00 52.91710 41.69165 35875 ft 447 kts 315°
2026-04-28 12:01 52.96522 41.62643 35863 ft 447 kts 316°
2026-04-28 12:01 53.01340 41.56095 35864 ft 448 kts 316°
2026-04-28 12:02 53.06157 41.49523 35861 ft 448 kts 316°
2026-04-28 12:02 53.10978 41.42925 35853 ft 449 kts 316°
2026-04-28 12:03 53.15798 41.36311 35852 ft 449 kts 316°
2026-04-28 12:03 53.20617 41.29761 35852 ft 452 kts 320°
2026-04-28 12:04 53.26218 41.24814 35845 ft 463 kts 337°
2026-04-28 12:04 53.30109 41.22805 35858 ft 465 kts 339°
2026-04-28 12:05 53.33047 41.21376 35847 ft 465 kts 339°
2026-04-28 12:05 53.35539 41.20166 35841 ft 465 kts 339°
2026-04-28 12:06 53.41746 41.17082 35836 ft 465 kts 338°
2026-04-28 12:06 53.47936 41.13919 35831 ft 464 kts 338°
2026-04-28 12:07 53.54111 41.10734 35827 ft 464 kts 338°
2026-04-28 12:07 53.60287 41.07543 35826 ft 464 kts 338°
2026-04-28 12:08 53.66444 41.04284 35815 ft 461 kts 333°
2026-04-28 12:08 53.69174 41.01610 35823 ft 450 kts 316°
2026-04-28 12:08 53.71346 40.97900 35811 ft 442 kts 303°
2026-04-28 12:09 53.72879 40.93451 35828 ft 436 kts 291°
2026-04-28 12:09 53.74081 40.88757 35821 ft 436 kts 290°
2026-04-28 12:09 53.76420 40.79304 35817 ft 437 kts 290°
2026-04-28 12:10 53.78807 40.69846 35817 ft 438 kts 291°
2026-04-28 12:10 53.81235 40.60371 35809 ft 439 kts 291°
2026-04-28 12:11 53.83661 40.50893 35811 ft 440 kts 291°
2026-04-28 12:11 53.86089 40.41365 35807 ft 441 kts 291°
2026-04-28 12:12 53.88509 40.31819 35803 ft 441 kts 291°
2026-04-28 12:12 53.90924 40.22247 35806 ft 442 kts 291°
2026-04-28 12:13 53.93321 40.12709 35807 ft 442 kts 291°
2026-04-28 12:13 53.95726 40.03101 35807 ft 442 kts 291°
2026-04-28 12:14 53.98123 39.93483 35800 ft 442 kts 291°
2026-04-28 12:14 54.00514 39.83842 35806 ft 443 kts 291°
2026-04-28 12:15 54.01710 39.79004 35452 ft 448 kts 291°
2026-04-28 12:15 54.02919 39.74101 34888 ft 448 kts 291°
2026-04-28 12:15 54.04123 39.69211 34239 ft 448 kts 291°
2026-04-28 12:15 54.05324 39.64326 33465 ft 446 kts 291°
2026-04-28 12:16 54.06512 39.59483 32677 ft 439 kts 291°
2026-04-28 12:16 54.07685 39.54686 31928 ft 439 kts 291°
2026-04-28 12:16 54.08860 39.49870 31190 ft 440 kts 291°
2026-04-28 12:16 54.10032 39.45053 30424 ft 441 kts 291°
2026-04-28 12:17 54.11201 39.40241 29843 ft 437 kts 291°
2026-04-28 12:17 54.12358 39.35469 29138 ft 433 kts 291°
2026-04-28 12:17 54.13499 39.30753 28565 ft 427 kts 291°
2026-04-28 12:17 54.14619 39.26112 28029 ft 420 kts 291°
2026-04-28 12:18 54.15723 39.21526 27429 ft 416 kts 292°
2026-04-28 12:18 54.16810 39.17004 27004 ft 407 kts 292°
2026-04-28 12:18 54.17884 39.12525 26340 ft 406 kts 292°
2026-04-28 12:18 54.18943 39.08098 25808 ft 401 kts 292°
2026-04-28 12:19 54.19992 39.03711 25284 ft 397 kts 293°
2026-04-28 12:19 54.21019 38.99405 25153 ft 383 kts 293°
2026-04-28 12:19 54.21996 38.95293 24965 ft 372 kts 293°
2026-04-28 12:19 54.23219 38.91495 24779 ft 360 kts 309°
2026-04-28 12:20 54.24959 38.88539 24730 ft 348 kts 323°
2026-04-28 12:20 54.27010 38.86454 24666 ft 339 kts 331°
2026-04-28 12:20 54.29128 38.84656 24620 ft 345 kts 333°
2026-04-28 12:20 54.31338 38.82840 24566 ft 359 kts 333°
2026-04-28 12:21 54.33616 38.80961 24492 ft 365 kts 333°
2026-04-28 12:21 54.35901 38.79054 24388 ft 362 kts 332°
2026-04-28 12:21 54.37391 38.77798 24333 ft 360 kts 332°
2026-04-28 12:21 54.39932 38.75640 24251 ft 356 kts 332°
2026-04-28 12:22 54.42138 38.73756 24177 ft 353 kts 332°
2026-04-28 12:22 54.44339 38.71871 24109 ft 353 kts 332°
2026-04-28 12:22 54.46540 38.69983 24045 ft 353 kts 332°
2026-04-28 12:22 54.48734 38.68100 23969 ft 352 kts 332°
2026-04-28 12:23 54.50899 38.66236 23897 ft 352 kts 332°
2026-04-28 12:23 54.53091 38.64344 23830 ft 352 kts 332°
2026-04-28 12:23 54.55278 38.62454 23758 ft 351 kts 332°
2026-04-28 12:23 54.57461 38.60564 23692 ft 351 kts 332°
2026-04-28 12:24 54.59643 38.58673 23615 ft 350 kts 332°
2026-04-28 12:24 54.61818 38.56786 23545 ft 350 kts 332°
2026-04-28 12:24 54.63989 38.54901 23474 ft 349 kts 332°
2026-04-28 12:24 54.66158 38.53015 23403 ft 348 kts 332°
2026-04-28 12:25 54.68318 38.51135 23324 ft 347 kts 332°
2026-04-28 12:25 54.70469 38.49261 23250 ft 346 kts 332°
2026-04-28 12:25 54.72614 38.47390 23169 ft 344 kts 332°
2026-04-28 12:25 54.74725 38.45552 23101 ft 343 kts 332°
2026-04-28 12:26 54.76855 38.43706 23031 ft 342 kts 332°
2026-04-28 12:26 54.78976 38.41870 22973 ft 341 kts 332°
2026-04-28 12:26 54.81096 38.40030 22888 ft 340 kts 332°
2026-04-28 12:26 54.83208 38.38195 22822 ft 339 kts 332°
2026-04-28 12:27 54.85361 38.36519 22742 ft 340 kts 340°
2026-04-28 12:27 54.87687 38.35711 22691 ft 342 kts 348°
2026-04-28 12:27 54.90049 38.35143 22602 ft 343 kts 349°
2026-04-28 12:27 54.92411 38.34602 22524 ft 343 kts 349°
2026-04-28 12:28 54.94808 38.34040 22432 ft 342 kts 349°
2026-04-28 12:28 54.97132 38.33478 22346 ft 341 kts 349°
2026-04-28 12:28 54.99505 38.32890 22277 ft 339 kts 348°
2026-04-28 12:28 55.01833 38.32303 22203 ft 337 kts 348°
2026-04-28 12:29 55.06433 38.31130 22052 ft 335 kts 348°
2026-04-28 12:29 55.08730 38.30542 21965 ft 333 kts 348°
2026-04-28 12:29 55.11055 38.29947 21896 ft 332 kts 348°
2026-04-28 12:30 55.13339 38.29360 21821 ft 331 kts 348°
2026-04-28 12:30 55.15609 38.28693 21698 ft 330 kts 342°
2026-04-28 12:30 55.17787 38.27378 21431 ft 332 kts 336°
2026-04-28 12:30 55.19923 38.25858 21164 ft 329 kts 335°
2026-04-28 12:31 55.22027 38.24351 20908 ft 324 kts 336°
2026-04-28 12:31 55.24101 38.22889 20651 ft 320 kts 336°
2026-04-28 12:31 55.26173 38.21457 20418 ft 320 kts 336°
2026-04-28 12:31 55.28247 38.20036 20177 ft 320 kts 336°
2026-04-28 12:32 55.30321 38.18618 19934 ft 320 kts 336°
2026-04-28 12:32 55.32351 38.17054 19692 ft 318 kts 327°
2026-04-28 12:32 55.34150 38.14815 19529 ft 315 kts 321°
2026-04-28 12:32 55.35571 38.11970 19028 ft 313 kts 298°
2026-04-28 12:33 55.36111 38.09630 18824 ft 314 kts 290°
2026-04-28 12:33 55.36470 38.05799 18440 ft 324 kts 275°
2026-04-28 12:33 55.36441 38.01818 18072 ft 327 kts 272°
2026-04-28 12:33 55.36327 37.97829 17657 ft 326 kts 271°
2026-04-28 12:34 55.36200 37.93875 17271 ft 324 kts 271°
2026-04-28 12:34 55.36079 37.89936 16907 ft 321 kts 271°
2026-04-28 12:34 55.35970 37.86026 16537 ft 319 kts 271°
2026-04-28 12:34 55.35867 37.82140 16186 ft 318 kts 271°
2026-04-28 12:35 55.35769 37.78273 15844 ft 316 kts 271°
2026-04-28 12:35 55.35673 37.74402 15497 ft 316 kts 271°
2026-04-28 12:35 55.35577 37.70548 15133 ft 315 kts 271°
2026-04-28 12:35 55.35479 37.66728 14791 ft 311 kts 271°
2026-04-28 12:36 55.35378 37.62946 14443 ft 308 kts 269°
2026-04-28 12:36 55.34858 37.59294 14094 ft 313 kts 248°
2026-04-28 12:36 55.33577 37.56193 13778 ft 319 kts 228°
2026-04-28 12:36 55.31705 37.54041 13447 ft 326 kts 207°
2026-04-28 12:37 55.29479 37.53155 13093 ft 334 kts 186°
2026-04-28 12:37 55.27149 37.53299 12770 ft 334 kts 181°
2026-04-28 12:37 55.24852 37.53560 12403 ft 326 kts 181°
2026-04-28 12:37 55.22633 37.53800 12108 ft 313 kts 182°
2026-04-28 12:38 55.20520 37.53950 11810 ft 301 kts 186°
2026-04-28 12:38 55.18466 37.53845 11508 ft 290 kts 188°
2026-04-28 12:38 55.16480 37.53673 11232 ft 281 kts 189°
2026-04-28 12:38 55.14551 37.53515 10983 ft 275 kts 189°
2026-04-28 12:39 55.12641 37.53374 10716 ft 275 kts 189°
2026-04-28 12:39 55.10741 37.53180 10448 ft 269 kts 198°
2026-04-28 12:39 55.09153 37.51797 10112 ft 249 kts 233°
2026-04-28 12:39 55.08280 37.49332 9886 ft 234 kts 256°
2026-04-28 12:40 55.08005 37.46632 9788 ft 222 kts 274°
2026-04-28 12:40 55.08291 37.44004 9584 ft 223 kts 292°
2026-04-28 12:40 55.09153 37.41695 9347 ft 228 kts 312°
2026-04-28 12:40 55.10426 37.40058 9103 ft 234 kts 329°
2026-04-28 12:41 55.12048 37.39329 8850 ft 243 kts 348°
2026-04-28 12:41 55.13718 37.39110 8603 ft 245 kts 350°
2026-04-28 12:41 55.15418 37.38918 8353 ft 244 kts 350°
2026-04-28 12:41 55.17104 37.38732 8089 ft 243 kts 350°
2026-04-28 12:42 55.18785 37.38545 7862 ft 241 kts 350°
2026-04-28 12:42 55.20459 37.38354 7618 ft 241 kts 350°
2026-04-28 12:42 55.22137 37.38162 7343 ft 241 kts 350°
2026-04-28 12:42 55.23801 37.37970 7099 ft 238 kts 350°
2026-04-28 12:43 55.25440 37.37780 6871 ft 235 kts 350°
2026-04-28 12:43 55.27067 37.37591 6636 ft 233 kts 349°
2026-04-28 12:43 55.28679 37.37402 6399 ft 231 kts 349°
2026-04-28 12:43 55.30272 37.37217 6160 ft 228 kts 349°
2026-04-28 12:44 55.31848 37.37138 5941 ft 228 kts 360°
2026-04-28 12:44 55.33401 37.37717 5786 ft 227 kts
2026-04-28 12:44 55.34903 37.38466 5605 ft 221 kts
2026-04-28 12:44 55.36374 37.39213 5471 ft 219 kts
2026-04-28 12:45 55.37842 37.39947 5321 ft 220 kts
2026-04-28 12:45 55.39319 37.40676 5178 ft 221 kts
2026-04-28 12:45 55.40804 37.41402 5021 ft 222 kts
2026-04-28 12:45 55.42295 37.42126 4855 ft 222 kts
2026-04-28 12:46 55.43767 37.42840 4703 ft 217 kts
2026-04-28 12:46 55.45210 37.43537 4539 ft 213 kts
2026-04-28 12:46 55.46633 37.44221 4393 ft 212 kts
2026-04-28 12:46 55.48052 37.44902 4242 ft 210 kts
2026-04-28 12:47 55.49435 37.45570 4089 ft 203 kts
2026-04-28 12:47 55.50782 37.46220 3938 ft 197 kts
2026-04-28 12:47 55.52070 37.46845 3800 ft 186 kts
2026-04-28 12:47 55.53295 37.47440 3636 ft 180 kts
2026-04-28 12:48 55.54477 37.48014 3495 ft 171 kts
2026-04-28 12:48 55.55589 37.48554 3361 ft 165 kts
2026-04-28 12:48 55.56677 37.49083 3210 ft 159 kts
2026-04-28 12:48 55.57735 37.49596 3103 ft 156 kts
2026-04-28 12:49 55.58786 37.50085 2980 ft 154 kts 358°
2026-04-28 12:49 55.59744 37.49774 2849 ft 135 kts 328°
2026-04-28 12:49 55.60635 37.49142 2740 ft 140 kts 332°
2026-04-28 12:49 55.61558 37.48521 2614 ft 142 kts 331°
2026-04-28 12:50 55.62440 37.47782 2449 ft 133 kts 311°
2026-04-28 12:50 55.62654 37.46314 2428 ft 133 kts 270°
2026-04-28 12:50 55.62653 37.44670 2284 ft 131 kts 279°
2026-04-28 12:50 55.62675 37.43126 2223 ft 122 kts 269°
2026-04-28 12:51 55.62488 37.41668 2238 ft 119 kts 263°
2026-04-28 12:51 55.62267 37.40222 2111 ft 123 kts 261°
2026-04-28 12:51 55.61990 37.38786 1965 ft 124 kts 258°
2026-04-28 12:51 55.61673 37.37333 1785 ft 127 kts 256°
2026-04-28 12:52 55.61346 37.35873 1582 ft 128 kts 254°
2026-04-28 12:52 55.61015 37.34402 1396 ft 129 kts 252°
2026-04-28 12:52 55.60683 37.32940 1223 ft 131 kts 252°
2026-04-28 12:52 55.60348 37.31441 1026 ft 132 kts 250°
2026-04-28 12:53 55.60005 37.29933 843 ft 135 kts 250°
2026-04-28 12:53 55.59664 37.28376 686 ft 131 kts 250°
2026-04-28 12:53 55.59380 37.27063 668 ft 93 kts 247°
2026-04-28 12:53 55.59176 37.26241 668 ft 60 kts 248°
2026-04-28 12:54 55.59095 37.25876 668 ft 18 kts 250°
2026-04-28 12:54 55.59100 37.25789 668 ft 5 kts 309°
2026-04-28 12:54 55.59110 37.25783 668 ft 1 kts 355°
2026-04-28 12:54 55.59118 37.25787 668 ft 1 kts 16°
2026-04-28 12:55 55.59126 37.25793 668 ft 2 kts 20°
2026-04-28 12:55 55.59148 37.25811 668 ft 5 kts 21°
2026-04-28 12:55 55.59191 37.25844 668 ft 9 kts 24°
2026-04-28 12:55 55.59251 37.25891 668 ft 10 kts 24°
2026-04-28 12:56 55.59311 37.25938 668 ft 9 kts 24°
2026-04-28 12:56 55.59356 37.26011 666 ft 9 kts 62°
2026-04-28 12:56 55.59378 37.26112 667 ft 9 kts 67°
2026-04-28 12:56 55.59401 37.26211 666 ft 9 kts 68°
2026-04-28 12:57 55.59424 37.26308 668 ft 8 kts 68°
2026-04-28 12:57 55.59445 37.26401 668 ft 8 kts 68°
2026-04-28 12:57 55.59467 37.26494 665 ft 9 kts 69°
2026-04-28 12:57 55.59491 37.26608 668 ft 10 kts 69°
2026-04-28 12:58 55.59516 37.26720 668 ft 10 kts 69°
2026-04-28 12:58 55.59546 37.26823 668 ft 9 kts 54°
2026-04-28 12:58 55.59586 37.26914 668 ft 9 kts 49°
2026-04-28 12:58 55.59630 37.26993 666 ft 9 kts 46°
2026-04-28 12:59 55.59682 37.27088 666 ft 14 kts 46°
2026-04-28 12:59 55.59748 37.27211 670 ft 13 kts 46°
2026-04-28 12:59 55.59811 37.27329 670 ft 13 kts 47°
2026-04-28 12:59 55.59871 37.27444 674 ft 13 kts 47°
2026-04-28 13:00 55.59929 37.27549 676 ft 11 kts 47°
2026-04-28 13:00 55.59970 37.27656 679 ft 10 kts 47°
2026-04-28 13:00 55.60006 37.27733 679 ft 7 kts 67°
2026-04-28 13:00 55.60000 37.27797 679 ft 3 kts 123°
2026-04-28 13:01 55.59990 37.27833 679 ft 3 kts 106°
2026-04-28 13:01 55.59992 37.27871 679 ft 3 kts 70°
2026-04-28 13:01 55.60007 37.27898 677 ft 3 kts 33°
2026-04-28 13:01 55.60026 37.27914 679 ft 3 kts 25°
2026-04-28 13:02 55.60033 37.27921 679 ft 1 kts 25°
2026-04-28 13:02 55.60038 37.27924 679 ft 1 kts 24°
2026-04-28 13:02 55.60038 37.27925 679 ft 0 kts 24°
2026-04-28 13:03 55.60039 37.27925 679 ft 0 kts 24°